Location: Lake Runnemede Observatory
(43.4843°N, 72.3851°W)
Time: 08:21:42
(UTC-04:00)

Amateur Radio Satellites - All Passes

Search period start: 03 July 2015 07:51
Search period end: 04 July 2015 07:51
Location: Lake Runnemede Observatory, 43.4843°N, 72.3851°W

Satellite Date Start Highest point End Downlink Frequencies (MHz)
Time Altitude Azimuth
DANDE 03 Jul 07:53:48 08:00:33 40° 95° (E) 08:05:58 436.750
BEESAT 2 03 Jul 07:54:39 07:58:39 53° 120° (ESE) 08:02:41 435.950
M-CUBED/EXP-1 PRIME 03 Jul 07:58:07 08:01:16 45° 68° (ENE) 08:04:34 437.505
O/OREOS (USA 219) 03 Jul 08:14:46 08:19:14 79° 293° (WNW) 08:23:44 437.305
PRISM 03 Jul 08:23:57 08:25:38 12° 272° (W) 08:27:05 437.425
RS-15 03 Jul 08:32:33 08:41:48 28° 15° (NNE) 08:51:33 29.354- 29.394
GONETS M04 03 Jul 08:41:29 08:49:25 41° 87° (E) 08:57:27
ISS 03 Jul 08:42:54 08:45:55 37° 140° (SE) 08:48:57 145.825
CUSAT 1 03 Jul 08:43:32 08:50:09 64° 281° (WNW) 08:55:10 437.405
GOMX 1 03 Jul 08:44:54 08:48:53 39° 97° (E) 08:52:48 467.674
CUTE-I 03 Jul 08:46:27 08:50:17 20° 298° (WNW) 08:53:57 437.470
HO-68 03 Jul 08:47:53 08:54:15 35° 95° (E) 09:00:42 435.675
CINEMA 3 03 Jul 08:56:46 08:59:06 15° 90° (E) 09:01:38 145.822/145.860
COMPASS 1 03 Jul 08:59:21 09:02:33 21° 92° (E) 09:05:51 437.405
AUBIESAT-1 03 Jul 09:00:16 09:03:14 30° 258° (WSW) 09:06:16 437.475
BRITE-PL 03 Jul 09:01:41 09:06:05 77° 284° (WNW) 09:10:15 437.365/2234.400
AIST 2 03 Jul 09:02:56 09:07:09 70° 122° (ESE) 09:11:26 435.215
CUTE 1.7 + AOD 2 03 Jul 09:03:57 09:07:55 36° 97° (E) 09:11:54 437.475
CANX-2 03 Jul 09:06:59 09:11:05 43° 98° (E) 09:15:12 2200.000
PHONESAT 2.4 03 Jul 09:14:04 09:15:39 13° 151° (SSE) 09:17:19 2401.200-2431.200
VERMONT LUNAR 03 Jul 09:16:20 09:19:13 34° 166° (SSE) 09:22:07 437.305
Cubesat XI-IV 03 Jul 09:22:35 09:23:36 10° 304° (NW) 09:24:19 437.490
BEESAT 3 03 Jul 09:23:50 09:26:56 20° 319° (NW) 09:29:59 437.485
ANTELSAT 03 Jul 09:25:06 09:27:47 17° 65° (ENE) 09:30:36 437.575/2403.000
BEESAT 2 03 Jul 09:33:54 09:37:02 20° 319° (NW) 09:40:07 435.950
DOVE 4 03 Jul 09:36:08 09:40:19 89° 284° (WNW) 09:44:28 437.250
DANDE 03 Jul 09:37:08 09:43:44 36° 286° (WNW) 09:48:55 436.750
TIGRISAT 03 Jul 09:37:32 09:40:45 22° 67° (ENE) 09:44:03 435.000
QB50P1 03 Jul 09:46:26 09:48:03 12° 62° (ENE) 09:49:51 145.935-145.965
CUBEBUG 2 03 Jul 09:54:05 09:57:48 30° 96° (E) 10:01:36 437.445
SEEDS 03 Jul 09:54:29 09:58:45 76° 284° (WNW) 10:03:00 437.485
Cosmos 2499 03 Jul 09:56:14 10:01:03 21° 83° (E) 10:06:12 435.465 / 435.565
O/OREOS (USA 219) 03 Jul 09:58:20 09:59:32 11° 315° (NW) 10:00:31 437.305
NANOSAT C BR1 03 Jul 10:00:07 10:02:44 17° 65° (ENE) 10:05:30 145.865
ZACube-1 03 Jul 10:03:02 10:06:24 24° 94° (E) 10:09:55 437.345
DUCHIFAT 1 03 Jul 10:07:12 10:10:09 19° 66° (ENE) 10:13:13 145.980
AAUSAT CUBESAT 2 03 Jul 10:09:19 10:13:33 76° 283° (WNW) 10:17:44 437.432
POLYITAN 1 03 Jul 10:10:08 10:13:19 21° 67° (ENE) 10:16:36 437.675
Oscar 11 03 Jul 10:14:38 10:18:55 54° 100° (E) 10:23:12 145.826/435.025
UNISAT 6 03 Jul 10:15:31 10:19:42 55° 74° (ENE) 10:23:53 437.425
ISS 03 Jul 10:19:18 10:22:20 35° 338° (NNW) 10:25:22 145.825
GOMX 1 03 Jul 10:23:49 10:26:48 18° 295° (WNW) 10:29:37 467.674
BUGSAT 1 03 Jul 10:30:16 10:33:32 22° 67° (ENE) 10:36:52 437.445
CINEMA 3 03 Jul 10:32:39 10:36:39 47° 287° (WNW) 10:40:41 145.822/145.860
HUMSAT D 03 Jul 10:33:55 10:37:09 22° 93° (E) 10:40:29 437.325/437.525
COMPASS 1 03 Jul 10:34:28 10:38:20 35° 289° (WNW) 10:42:10 437.405
DELFI C3 03 Jul 10:34:54 10:38:58 65° 101° (E) 10:43:01 145.870
HO-68 03 Jul 10:35:23 10:42:13 49° 294° (WNW) 10:48:59 435.675
GONETS M04 03 Jul 10:37:47 10:46:12 47° 288° (WNW) 10:54:33
QB50P2 03 Jul 10:39:07 10:43:07 43° 72° (ENE) 10:47:10 145.880/145.840
FUNcube-1 03 Jul 10:39:19 10:43:27 58° 100° (E) 10:47:41 145.935
POPSAT HIP 1 03 Jul 10:40:14 10:44:14 42° 72° (ENE) 10:48:16 437.405
CUTE 1.7 + AOD 2 03 Jul 10:40:20 10:43:39 22° 293° (WNW) 10:46:52 437.475
AIST 2 03 Jul 10:43:14 10:46:12 18° 321° (NW) 10:49:06 435.215
CANX-2 03 Jul 10:43:43 10:46:44 18° 294° (WNW) 10:49:38 2200.000
RS-15 03 Jul 10:46:02 10:57:27 58° 45° (NE) 11:09:24 29.354- 29.394
UWE-3 03 Jul 10:47:56 10:52:08 85° 284° (WNW) 10:56:25 435.000/436.395/437.385
PHONESAT 2.4 03 Jul 10:49:56 10:53:08 37° 166° (SSE) 10:56:22 2401.200-2431.200
50 SAT 03 Jul 10:50:04 10:52:29 16° 91° (E) 10:55:01 437.505
VERMONT LUNAR 03 Jul 10:52:51 10:55:54 48° 183° (S) 10:58:58 437.305
ANTELSAT 03 Jul 11:00:06 11:04:16 47° 261° (W) 11:08:24 437.575/2403.000
VELOX 1 03 Jul 11:10:10 11:13:47 25° 94° (E) 11:17:25 145.980
TIGRISAT 03 Jul 11:13:22 11:17:20 35° 263° (W) 11:21:16 435.000
QB50P1 03 Jul 11:19:10 11:23:24 71° 257° (WSW) 11:27:40 145.935-145.965
DX 1 03 Jul 11:24:31 11:28:51 64° 101° (ESE) 11:33:09 434.975-435.025
CUBEBUG 2 03 Jul 11:30:59 11:34:24 24° 292° (WNW) 11:37:48 437.445
NANOSAT C BR1 03 Jul 11:34:07 11:38:14 48° 261° (W) 11:42:21 145.865
ZACube-1 03 Jul 11:39:06 11:42:50 31° 290° (WNW) 11:46:34 437.345
DUCHIFAT 1 03 Jul 11:41:41 11:45:43 41° 262° (W) 11:49:43 145.980
POLYITAN 1 03 Jul 11:45:06 11:49:02 36° 263° (W) 11:52:57 437.675
Cosmos 2499 03 Jul 11:46:31 11:53:32 68° 281° (WNW) 12:00:40 435.465 / 435.565
UKube-1 03 Jul 11:47:35 11:51:56 79° 285° (WNW) 11:56:14 .
Oscar 11 03 Jul 11:52:01 11:54:43 16° 296° (WNW) 11:57:15 145.826/435.025
SPROUT 03 Jul 11:52:17 11:53:19 11° 87° (E) 11:54:38 437.525
UNISAT 6 03 Jul 11:54:38 11:56:54 14° 271° (W) 11:58:59 437.425
AISAT 03 Jul 11:56:15 12:00:42 80° 103° (ESE) 12:05:05 437.250
ISS 03 Jul 11:56:57 11:59:23 19° 358° (N) 12:01:48 145.825
BUGSAT 1 03 Jul 12:04:57 12:08:51 34° 263° (W) 12:12:41 437.445
HUMSAT D 03 Jul 12:09:14 12:12:57 32° 290° (WNW) 12:16:40 437.325/437.525
DELFI C3 03 Jul 12:11:51 12:13:35 12° 297° (WNW) 12:15:08 145.870
QB50P2 03 Jul 12:16:20 12:19:16 17° 269° (W) 12:22:04 145.880/145.840
FUNcube-1 03 Jul 12:17:06 12:19:24 14° 296° (WNW) 12:21:33 145.935
POPSAT HIP 1 03 Jul 12:17:24 12:20:21 18° 269° (W) 12:23:09 437.405
CUBEBUG 1 03 Jul 12:18:32 12:22:55 75° 102° (ESE) 12:27:15 437.445
ESTCUBE 1 03 Jul 12:23:19 12:27:53 84° 284° (WNW) 12:32:25 437.505/2401.250
50 SAT 03 Jul 12:23:40 12:27:19 39° 288° (WNW) 12:30:58 437.505
HO-68 03 Jul 12:27:06 12:28:26 10° 314° (NW) 12:29:20 435.675
PHONESAT 2.4 03 Jul 12:27:32 12:30:54 51° 183° (S) 12:34:18 2401.200-2431.200
VERMONT LUNAR 03 Jul 12:29:49 12:32:32 26° 199° (SSW) 12:35:14 437.305
Oscar 19 03 Jul 12:34:59 12:39:25 31° 67° (ENE) 12:43:56 437.125/150
TISAT 1 03 Jul 12:37:31 12:40:48 22° 93° (E) 12:44:09 437.305
ITAMSAT 1 03 Jul 12:46:19 12:48:25 13° 58° (ENE) 12:50:45 435.822/435.867
VELOX 1 03 Jul 12:46:25 12:50:23 32° 291° (WNW) 12:54:17 145.980
RS-15 03 Jul 12:58:49 13:09:55 49° 248° (WSW) 13:21:13 29.354- 29.394
DX 1 03 Jul 13:02:17 13:04:38 14° 298° (WNW) 13:06:48 434.975-435.025
SPROUT 03 Jul 13:25:42 13:29:59 69° 285° (WNW) 13:34:12 437.525
ISS 03 Jul 13:33:38 13:36:29 28° 17° (NNE) 13:39:21 145.825
AISAT 03 Jul 13:35:02 13:36:42 12° 299° (WNW) 13:38:09 437.250
Cosmos 2499 03 Jul 13:45:58 13:48:30 12° 306° (NW) 13:50:35 435.465 / 435.565
CUBEBUG 1 03 Jul 13:56:55 13:58:44 12° 298° (WNW) 14:00:20 437.445
BEESAT 03 Jul 14:02:04 14:06:19 31° 95° (E) 14:10:35 436.000
ESTCUBE 1 03 Jul 14:03:33 14:04:04 10° 300° (WNW) 14:04:21 437.505/2401.250
AO-7 03 Jul 14:03:43 14:09:53 25° 52° (NE) 14:16:20 29.400- 29.500
PHONESAT 2.4 03 Jul 14:05:35 14:08:38 29° 199° (SSW) 14:11:41 2401.200-2431.200
Gurwin Techsat 1B 03 Jul 14:08:32 14:13:46 66° 73° (ENE) 14:19:05 435.225
TISAT 1 03 Jul 14:12:52 14:16:38 32° 290° (WNW) 14:20:20 437.305
YUBILEINY 03 Jul 14:13:34 14:22:00 50° 73° (ENE) 14:30:30 435.215
Oscar 19 03 Jul 14:14:03 14:18:44 34° 264° (W) 14:23:23 437.125/150
SWISSCUBE 03 Jul 14:17:12 14:21:51 48° 99° (E) 14:26:30 437.505
ITUPSAT 1 03 Jul 14:21:53 14:26:33 48° 99° (E) 14:31:13 437.325
ITAMSAT 1 03 Jul 14:21:58 14:27:11 84° 77° (ENE) 14:32:28 435.822/435.867
Cosmos 2491 03 Jul 14:36:30 14:43:55 33° 85° (E) 14:51:33 435.465 / 435.565
JAS-2 03 Jul 14:47:19 14:52:02 38° 68° (ENE) 14:57:01 435.910
STARS 03 Jul 14:56:58 14:58:17 11° 88° (E) 14:59:51 437.465
ISS 03 Jul 15:09:52 15:13:06 62° 216° (SW) 15:16:17 145.825
PCSat 03 Jul 15:10:46 15:14:36 21° 107° (ESE) 15:18:37 145.827
AIST 1 03 Jul 15:16:52 15:20:27 26° 89° (E) 15:24:07
Cosmos 2504 03 Jul 15:28:28 15:33:00 17° 60° (ENE) 15:38:07 435.465 / 435.565
HORYU 2 03 Jul 15:35:55 15:40:17 67° 74° (ENE) 15:44:42 437.375
KKS-1 03 Jul 15:35:57 15:40:16 50° 100° (E) 15:44:34 437.445
BEESAT 03 Jul 15:39:54 15:44:07 30° 293° (WNW) 15:48:16 436.000
AIST 2 03 Jul 15:46:54 15:48:23 12° 32° (NNE) 15:50:00 435.215
Gurwin Techsat 1B 03 Jul 15:50:53 15:54:20 17° 271° (W) 15:57:34 435.225
AO-7 03 Jul 15:53:27 16:01:49 87° 252° (WSW) 16:10:16 29.400- 29.500
SWISSCUBE 03 Jul 15:55:48 15:59:25 21° 296° (WNW) 16:02:55 437.505
ITUPSAT 1 03 Jul 16:00:30 16:04:09 21° 296° (WNW) 16:07:40 437.325
BEESAT 3 03 Jul 16:02:11 16:06:08 46° 51° (NE) 16:10:01 437.485
ITAMSAT 1 03 Jul 16:05:13 16:07:29 12° 274° (W) 16:09:27 435.822/435.867
YUBILEINY 03 Jul 16:10:48 16:18:41 38° 274° (W) 16:26:25 435.215
BEESAT 2 03 Jul 16:12:42 16:16:40 47° 51° (NE) 16:20:36 435.950
STARS 03 Jul 16:30:56 16:35:19 69° 286° (WNW) 16:39:39 437.465
Cosmos 2491 03 Jul 16:31:44 16:40:25 58° 284° (WNW) 16:49:05 435.465 / 435.565
JAS-2 03 Jul 16:33:02 16:37:24 26° 267° (W) 16:41:49 435.910
SO-50 03 Jul 16:37:52 16:41:48 27° 114° (ESE) 16:45:55 436.795
O/OREOS (USA 219) 03 Jul 16:44:41 16:48:31 27° 56° (NE) 16:52:26 437.305
CUTE-I 03 Jul 16:50:53 16:54:12 17° 60° (ENE) 16:57:42 437.470
PCSat 03 Jul 16:52:16 16:57:37 60° 304° (NW) 17:03:01 145.827
AIST 1 03 Jul 16:54:09 16:58:01 29° 287° (WNW) 17:01:52
KKS-1 03 Jul 17:13:33 17:16:34 18° 296° (WNW) 17:19:26 437.445
HORYU 2 03 Jul 17:15:39 17:17:29 12° 272° (W) 17:19:04 437.375
Cosmos 2504 03 Jul 17:20:00 17:27:43 83° 81° (E) 17:36:01 435.465 / 435.565
MOZHAYETS 4 03 Jul 17:21:20 17:26:00 70° 101° (ESE) 17:30:37
Cubesat XI-IV 03 Jul 17:23:07 17:27:46 32° 66° (ENE) 17:32:31 437.490
AIST 2 03 Jul 17:23:39 17:27:51 65° 54° (NE) 17:31:58 435.215
BEESAT 3 03 Jul 17:40:59 17:43:46 18° 248° (WSW) 17:46:24 437.485
CUBESAT XI-V 03 Jul 17:47:22 17:48:41 11° 86° (E) 17:50:18 437.345
AO-7 03 Jul 17:50:20 17:55:57 18° 273° (W) 18:01:08 29.400- 29.500
BEESAT 2 03 Jul 17:51:37 17:54:25 18° 248° (WSW) 17:57:04 435.950
SO-50 03 Jul 18:17:38 18:22:11 42° 312° (NW) 18:26:52 436.795
O/OREOS (USA 219) 03 Jul 18:23:55 18:28:00 33° 254° (WSW) 18:32:03 437.305
CUTE-I 03 Jul 18:28:22 18:33:43 73° 257° (WSW) 18:39:08 437.470
BRITE-PL 03 Jul 18:36:11 18:39:47 19° 65° (ENE) 18:43:25 437.365/2234.400
DANDE 03 Jul 18:36:25 18:37:36 12° 64° (ENE) 18:38:50 436.750
Cosmos 2491 03 Jul 18:36:25 18:39:51 12° 310° (NW) 18:42:40 435.465 / 435.565
PCSat 03 Jul 18:39:29 18:42:16 14° 327° (NNW) 18:44:53 145.827
GONETS M04 03 Jul 18:50:21 18:56:29 21° 59° (ENE) 19:02:56
MOZHAYETS 4 03 Jul 19:00:09 19:02:43 14° 298° (WNW) 19:05:04
Cubesat XI-IV 03 Jul 19:02:51 19:07:48 37° 264° (W) 19:12:45 437.490
AIST 2 03 Jul 19:03:51 19:05:56 13° 250° (WSW) 19:07:51 435.215
DOVE 4 03 Jul 19:07:49 19:09:51 13° 63° (ENE) 19:12:02 437.250
Cosmos 2504 03 Jul 19:15:05 19:20:24 20° 278° (W) 19:25:34 435.465 / 435.565
HO-68 03 Jul 19:18:11 19:24:09 31° 60° (ENE) 19:30:15 435.675
CUSAT 1 03 Jul 19:20:56 19:23:38 74° 263° (W) 19:26:13 437.405
CUBESAT XI-V 03 Jul 19:22:06 19:26:49 78° 284° (WNW) 19:31:28 437.345
COMPASS 1 03 Jul 19:52:18 19:55:01 18° 66° (ENE) 19:57:53 437.405
STRAND 1 03 Jul 19:52:26 19:57:36 69° 103° (ESE) 20:02:43 437.568
GOMX 1 03 Jul 19:53:18 19:58:20 55° 73° (ENE) 20:03:04 467.674
CUTE 1.7 + AOD 2 03 Jul 19:58:05 20:01:45 30° 70° (ENE) 20:05:29 437.475
CINEMA 3 03 Jul 19:59:45 20:02:45 18° 66° (ENE) 20:05:47 145.822/145.860
CANX-2 03 Jul 20:01:06 20:04:56 36° 71° (ENE) 20:08:49 2200.000
PRISM 03 Jul 20:01:54 20:06:09 88° 102° (ESE) 20:10:20 437.425
SO-50 03 Jul 20:02:39 20:04:06 11° 335° (NNW) 20:05:25 436.795
BRITE-PL 03 Jul 20:12:27 20:17:56 65° 259° (W) 20:23:06 437.365/2234.400
DANDE 03 Jul 20:18:52 20:20:50 17° 270° (W) 20:22:37 436.750
AUBIESAT-1 03 Jul 20:39:17 20:41:30 14° 96° (E) 20:43:58 437.475
DOVE 4 03 Jul 20:42:14 20:47:09 79° 258° (WSW) 20:51:48 437.250
GONETS M04 03 Jul 20:45:58 20:54:43 87° 261° (W) 21:03:25
SEEDS 03 Jul 20:47:21 20:51:32 86° 77° (ENE) 20:55:45 437.485
CUBEBUG 2 03 Jul 20:53:40 20:57:24 30° 70° (ENE) 21:01:07 437.445
ZACube-1 03 Jul 21:00:34 21:03:48 22° 68° (ENE) 21:07:05 437.345
AAUSAT CUBESAT 2 03 Jul 21:00:52 21:05:00 83° 75° (ENE) 21:09:11 437.432
HO-68 03 Jul 21:04:32 21:11:33 58° 259° (WSW) 21:18:36 435.675
Oscar 11 03 Jul 21:10:26 21:14:33 48° 73° (ENE) 21:18:44 145.826/435.025
UKube-1 03 Jul 21:10:40 21:11:59 11° 61° (ENE) 21:13:31 .
M-CUBED/EXP-1 PRIME 03 Jul 21:11:19 21:15:11 35° 103° (ESE) 21:19:19 437.505
DELFI C3 03 Jul 21:23:08 21:26:56 44° 73° (ENE) 21:30:48 145.870
COMPASS 1 03 Jul 21:26:27 21:30:24 43° 262° (W) 21:34:24 437.405
HUMSAT D 03 Jul 21:27:22 21:30:13 19° 66° (ENE) 21:33:10 437.325/437.525
STRAND 1 03 Jul 21:32:57 21:36:18 17° 299° (WNW) 21:39:27 437.568
GOMX 1 03 Jul 21:33:07 21:36:45 19° 269° (W) 21:40:05 467.674
CUTE 1.7 + AOD 2 03 Jul 21:34:14 21:37:42 24° 267° (W) 21:41:07 437.475
Cosmos 2499 03 Jul 21:34:39 21:42:03 46° 74° (ENE) 21:50:03 435.465 / 435.565
CINEMA 3 03 Jul 21:35:19 21:39:42 46° 261° (W) 21:43:54 145.822/145.860
FUNcube-1 03 Jul 21:36:11 21:40:15 51° 73° (ENE) 21:44:19 145.935
50 SAT 03 Jul 21:36:52 21:38:04 11° 64° (ENE) 21:39:27 437.505
CANX-2 03 Jul 21:37:48 21:41:00 20° 268° (W) 21:44:07 2200.000
UWE-3 03 Jul 21:46:05 21:50:21 89° 78° (ENE) 21:54:34 435.000/436.395/437.385
ESTCUBE 1 03 Jul 21:50:20 21:52:03 12° 61° (ENE) 21:53:59 437.505/2401.250
UNISAT 6 03 Jul 22:08:50 22:09:27 10° 87° (E) 22:10:21 437.425
VELOX 1 03 Jul 22:08:53 22:12:36 27° 67° (ENE) 22:16:23 145.980
AUBIESAT-1 03 Jul 22:12:25 22:16:32 60° 291° (WNW) 22:20:55 437.475
DX 1 03 Jul 22:20:57 22:25:18 64° 73° (ENE) 22:29:39 434.975-435.025
CUBEBUG 2 03 Jul 22:30:34 22:34:08 24° 266° (W) 22:37:35 437.445
ZACube-1 03 Jul 22:36:11 22:40:02 33° 264° (W) 22:43:48 437.345
UKube-1 03 Jul 22:43:12 22:47:33 80° 257° (WSW) 22:51:55 .
GONETS M04 03 Jul 22:44:54 22:50:26 18° 282° (WNW) 22:55:29
M-CUBED/EXP-1 PRIME 03 Jul 22:46:27 22:49:52 25° 297° (WNW) 22:53:25 437.505
SPROUT 03 Jul 22:48:07 22:49:25 11° 62° (ENE) 22:50:55 437.525
Oscar 11 03 Jul 22:48:19 22:51:03 16° 270° (W) 22:53:39 145.826/435.025
ANTELSAT 03 Jul 22:50:39 22:54:30 30° 96° (E) 22:58:28 437.575/2403.000
AISAT 03 Jul 22:54:49 22:59:18 82° 76° (ENE) 23:03:48 437.250
DELFI C3 03 Jul 22:59:54 23:02:19 15° 270° (W) 23:04:35 145.870
HUMSAT D 03 Jul 23:01:53 23:05:44 38° 263° (W) 23:09:34 437.325/437.525
TIGRISAT 03 Jul 23:03:14 23:07:19 39° 98° (E) 23:11:30 435.000
QB50P1 03 Jul 23:04:09 23:06:51 17° 91° (E) 23:09:40 145.935-145.965
50 SAT 03 Jul 23:08:28 23:12:15 60° 259° (W) 23:16:03 437.505
FUNcube-1 03 Jul 23:14:39 23:16:58 14° 271° (W) 23:19:04 145.935
CUBEBUG 1 03 Jul 23:15:25 23:19:50 72° 76° (ENE) 23:24:16 437.445
NANOSAT C BR1 03 Jul 23:18:12 23:21:34 23° 94° (E) 23:24:59 145.865
ESTCUBE 1 03 Jul 23:23:48 23:28:20 80° 257° (WSW) 23:32:55 437.505/2401.250
DUCHIFAT 1 03 Jul 23:25:17 23:28:52 27° 95° (E) 23:32:28 145.980
Cosmos 2499 03 Jul 23:28:02 23:35:08 39° 272° (W) 23:42:36 435.465 / 435.565
POLYITAN 1 03 Jul 23:29:09 23:32:55 32° 96° (E) 23:36:43 437.675
SO-50 03 Jul 23:29:30 23:30:09 10° 24° (NNE) 23:30:56 436.795
TISAT 1 03 Jul 23:31:00 23:34:10 21° 67° (ENE) 23:37:25 437.305
UNISAT 6 03 Jul 23:42:27 23:46:50 76° 285° (WNW) 23:51:16 437.425
VELOX 1 03 Jul 23:45:04 23:49:04 31° 264° (W) 23:53:03 145.980
BUGSAT 1 03 Jul 23:45:58 23:49:31 29° 95° (E) 23:53:06 437.445
PCSat 03 Jul 23:56:07 00:00:34 25° 44° (NE) 00:05:04 145.827
QB50P2 03 Jul 23:58:42 00:02:55 70° 102° (ESE) 00:07:07 145.880/145.840
POPSAT HIP 1 03 Jul 23:59:39 00:03:51 69° 101° (ESE) 00:08:02 437.405
DX 1 04 Jul 00:00:01 00:02:02 13° 271° (W) 00:03:50 434.975-435.025
SPROUT 04 Jul 00:20:37 00:24:57 79° 259° (W) 00:29:16 437.525
ANTELSAT 04 Jul 00:27:31 00:31:13 27° 292° (WNW) 00:34:56 437.575/2403.000
QB50P1 04 Jul 00:38:57 00:42:58 43° 288° (WNW) 00:46:57 145.935-145.965
TIGRISAT 04 Jul 00:40:33 00:43:53 21° 293° (WNW) 00:47:08 435.000
Cosmos 2491 04 Jul 00:45:22 00:50:32 17° 56° (NE) 00:56:08 435.465 / 435.565
NANOSAT C BR1 04 Jul 00:53:43 00:57:27 31° 291° (WNW) 01:01:07 145.865
CUBEBUG 1 04 Jul 00:55:12 00:56:46 11° 273° (W) 00:58:06 437.445
DUCHIFAT 1 04 Jul 01:01:04 01:04:37 27° 292° (WNW) 01:08:07 145.980
POLYITAN 1 04 Jul 01:05:19 01:08:42 23° 292° (WNW) 01:12:02 437.675
TISAT 1 04 Jul 01:05:47 01:09:44 36° 262° (W) 01:13:40 437.305
SO-50 04 Jul 01:07:32 01:12:10 37° 46° (NE) 01:16:45 436.795
BEESAT 04 Jul 01:09:34 01:14:01 41° 70° (ENE) 01:18:31 436.000
RS-15 04 Jul 01:13:59 01:22:12 27° 104° (ESE) 01:31:03 29.354- 29.394
BUGSAT 1 04 Jul 01:21:37 01:24:54 23° 292° (WNW) 01:28:04 437.445
SWISSCUBE 04 Jul 01:24:44 01:29:27 63° 73° (ENE) 01:34:13 437.505
ITUPSAT 1 04 Jul 01:29:40 01:34:24 63° 73° (ENE) 01:39:11 437.325
QB50P2 04 Jul 01:36:32 01:38:19 12° 298° (WNW) 01:39:55 145.880/145.840
POPSAT HIP 1 04 Jul 01:37:26 01:39:14 12° 298° (WNW) 01:40:51 437.405
PCSat 04 Jul 01:39:03 01:44:23 59° 244° (WSW) 01:49:41 145.827
STARS 04 Jul 01:55:04 01:57:06 13° 62° (ENE) 01:59:19 437.465
Oscar 19 04 Jul 02:23:41 02:28:49 77° 102° (ESE) 02:33:58 437.125/150
Gurwin Techsat 1B 04 Jul 02:24:10 02:28:22 24° 92° (E) 02:32:40 435.225
ITAMSAT 1 04 Jul 02:34:11 02:38:33 27° 94° (E) 02:43:01 435.822/435.867
KKS-1 04 Jul 02:35:03 02:39:22 53° 73° (ENE) 02:43:44 437.445
Cosmos 2491 04 Jul 02:40:27 02:49:15 78° 80° (E) 02:57:59 435.465 / 435.565
SO-50 04 Jul 02:48:14 02:52:41 33° 245° (WSW) 02:56:59 436.795
BEESAT 04 Jul 02:48:14 02:52:02 23° 267° (W) 02:55:46 436.000
AIST 1 04 Jul 02:59:22 03:03:46 78° 81° (E) 03:08:05
SWISSCUBE 04 Jul 03:05:00 03:07:49 15° 271° (W) 03:10:26 437.505
ITUPSAT 1 04 Jul 03:10:00 03:12:48 15° 271° (W) 03:15:25 437.325
YUBILEINY 04 Jul 03:15:47 03:24:06 55° 91° (E) 03:32:32 435.215
RS-15 04 Jul 03:22:28 03:33:25 83° 306° (NW) 03:44:47 29.354- 29.394
HORYU 2 04 Jul 03:28:02 03:29:34 12° 88° (E) 03:31:20 437.375
STARS 04 Jul 03:28:40 03:33:04 69° 258° (WSW) 03:37:27 437.465
JAS-2 04 Jul 03:37:40 03:43:42 37° 96° (E) 03:50:26 435.910
AO-7 04 Jul 03:54:25 04:01:23 30° 93° (E) 04:08:32 29.400- 29.500
Gurwin Techsat 1B 04 Jul 04:03:31 04:08:37 46° 290° (WNW) 04:13:40 435.225
Oscar 19 04 Jul 04:04:37 04:07:38 15° 300° (WNW) 04:10:26 437.125/150
ITAMSAT 1 04 Jul 04:13:20 04:18:12 40° 292° (WNW) 04:23:00 435.822/435.867
KKS-1 04 Jul 04:13:36 04:16:23 16° 270° (W) 04:19:00 437.445
MOZHAYETS 4 04 Jul 04:24:12 04:28:45 74° 75° (ENE) 04:33:22
Cosmos 2491 04 Jul 04:38:44 04:45:16 23° 279° (W) 04:51:24 435.465 / 435.565
CUBESAT XI-V 04 Jul 04:51:40 04:54:05 14° 62° (ENE) 04:56:41 437.345
HORYU 2 04 Jul 05:02:19 05:06:47 70° 286° (WNW) 05:11:14 437.375
YUBILEINY 04 Jul 05:13:33 05:21:23 35° 292° (WNW) 05:29:06 435.215
JAS-2 04 Jul 05:22:43 05:28:50 44° 291° (WNW) 05:35:35 435.910
STRAND 1 04 Jul 05:33:00 05:35:56 16° 60° (ENE) 05:39:04 437.568
RS-15 04 Jul 05:38:04 05:47:49 33° 334° (NNW) 05:57:48 29.354- 29.394
Cubesat XI-IV 04 Jul 05:42:02 05:42:39 10° 84° (E) 05:43:41 437.490
AO-7 04 Jul 05:46:32 05:54:50 66° 293° (WNW) 06:03:02 29.400- 29.500
Cosmos 2504 04 Jul 06:00:08 06:07:15 67° 94° (E) 06:14:23 435.465 / 435.565
MOZHAYETS 4 04 Jul 06:04:56 06:06:37 12° 274° (W) 06:08:03
CUBESAT XI-V 04 Jul 06:26:17 06:30:59 72° 259° (WSW) 06:35:44 437.345
CUTE-I 04 Jul 06:44:27 06:49:31 41° 97° (E) 06:54:33 437.470
CUSAT 1 04 Jul 06:47:06 06:50:16 15° 92° (E) 06:53:22 437.405
PRISM 04 Jul 06:52:43 06:56:52 75° 75° (ENE) 07:01:05 437.425
O/OREOS (USA 219) 04 Jul 06:58:42 07:02:10 23° 103° (ESE) 07:05:44 437.305
STRAND 1 04 Jul 07:09:26 07:14:35 75° 257° (WSW) 07:19:46 437.568
Cubesat XI-IV 04 Jul 07:18:19 07:23:44 82° 102° (ESE) 07:29:07 437.490
AIST 2 04 Jul 07:26:31 07:26:43 10° 109° (ESE) 07:27:11 435.215
AUBIESAT-1 04 Jul 07:28:40 07:30:51 17° 61° (ENE) 07:33:11 437.475
BEESAT 3 04 Jul 07:33:06 07:37:06 60° 121° (ESE) 07:41:10 437.485
AO-7 04 Jul 07:41:11 07:46:12 17° 314° (NW) 07:50:53 29.400- 29.500
